Home   Weather   Hyderabad   Past weeks

Flag for India Past Weather in Hyderabad, Telangana, India — Yesterday and Last 2 Weeks

Now
90 °F

Passing clouds.


Feels Like: 90 °F
Forecast: 60 / 85 °F
Wind: 5 mph from Northeast

Location: Hyderabad Airport

Current Time: Dec 5, 2016 at 4:06:47 pm

Latest Report: Dec 5, 2016 at 3:30 pm


Visibility: 4 mi

Pressure: 30.01 "Hg (28.35 "Hg at 507m altitude)

Humidity: 38%

Dew Point: 61 °F

Location of HyderabadLocation

Past Weather in Hyderabad — Graph

°F

Hyderabad Temperature Yesterday

Maximum temperature yesterday: 90 °F (at 12:00 pm)
Minimum temperature yesterday: 73 °F (at 6:00 am)
Average temperature yesterday: 82 °F

High & Low Weather Summary for the Past Weeks

 TemperatureHumidityPressure
High95 °F (Nov 29, 2:00 pm)83% (Dec 1, 6:30 am)30.18 "Hg (Dec 1, 6:30 am)
Low52 °F (Nov 23, 6:00 am)16% (Nov 26, 2:30 pm)28.15 "Hg (Nov 23, 6:00 am)
Average78 °F45%30.03 "Hg
* Reported Nov 20 2:30 pm — Dec 5 2:30 pm, Hyderabad, Weather by CustomWeather, © 2016

Note: Actual official high and low records may vary slightly from our data, if they occured in-between our weather recording intervals... More about our weather records

Advertising

Hyderabad Weather History for the Previous 24 Hours

Scroll right to see more
 ConditionsComfort  
Time TempWeatherWind HumidityBarometerVisibility
2:30 pm
Mon, Dec 5
91 °FPassing clouds.6 mph36%30.01 "Hg4 mi
2:00 pm91 °FScattered clouds.3 mph38%30.01 "Hg4 mi
1:30 pm90 °FScattered clouds.3 mph38%30.04 "Hg4 mi
1:00 pm90 °FScattered clouds.3 mph38%30.04 "Hg4 mi
12:30 pm88 °FClear.3 mph40%30.07 "Hg4 mi
12:00 pm86 °FClear.5 mph43%30.07 "Hg4 mi
11:30 am86 °FHaze.5 mph49%30.09 "Hg3 mi
11:00 am84 °FHaze.5 mph55%30.12 "Hg3 mi
10:30 am84 °FHaze.3 mph55%30.12 "Hg3 mi
10:00 am82 °FHaze.3 mph58%30.12 "Hg2 mi
9:30 am81 °FHaze.5 mph62%30.15 "Hg2 mi
9:00 am79 °FHaze.3 mph65%30.15 "Hg2 mi
8:30 am77 °FFog.2 mph74%30.12 "Hg2 mi
7:30 am72 °FFog.No wind78%30.09 "Hg1 mi
7:00 am70 °FFog.No wind78%30.09 "Hg1 mi
6:30 am70 °FFog.No wind78%30.09 "Hg1 mi
6:00 am70 °FFog.No wind78%30.07 "Hg1 mi
9:30 pm
Sun, Dec 4
77 °FPassing clouds.No wind69%30.12 "Hg3 mi
9:00 pm77 °FPassing clouds.No wind69%30.12 "Hg3 mi
8:30 pm77 °FPassing clouds.No wind74%30.12 "Hg3 mi
8:00 pm79 °FPassing clouds.No wind65%30.12 "Hg3 mi
7:30 pm79 °FPassing clouds.No wind65%30.12 "Hg3 mi
7:00 pm81 °FHaze.No wind62%30.09 "Hg3 mi
6:30 pm81 °FHaze.No wind62%30.07 "Hg3 mi
6:00 pm82 °FHaze.No wind58%30.07 "Hg3 mi
5:30 pm84 °FPartly sunny.2 mph55%30.07 "Hg3 mi
5:00 pm86 °FBroken clouds.3 mph52%30.07 "Hg3 mi
4:30 pm86 °FBroken clouds.3 mph52%30.04 "Hg3 mi
Weather by CustomWeather, © 2016

See weather overviewHow to use our weather pages